Probability
0 0 0 0 0 0 0 0 0 0 0 0 0 0 0 0 0 0 0 0 0 0 1 2 3 3 3 1 0 0 0 0 0 0 0 0 0 0 0 0 0 0 0 0 0 0 0 0 0
0 0 0 0 0 0 0 0 0 0 0 0 0 0 0 0 0 0 0 0 0 0 0 1 3 3 3 2 1 1 1 0 0 0 0 0 0 0 0 0 0 0 0 0 0 0 0 0 0
0 0 0 0 0 0 0 0 0 0 0 0 0 0 0 0 0 0 0 0 0 0 0 1 2 3 3 2 1 2 2 1 0 0 0 0 0 0 0 0 0 0 0 0 0 0 0 0 0
0 0 0 0 0 0 0 0 0 0 0 0 0 0 0 0 0 0 0 0 0 0 0 0 1 2 2 1 1 1 1 1 0 0 0 0 0 0 0 0 0 0 0 0 0 0 0 0 0
0 0 0 0 0 0 0 0 0 0 0 0 0 0 0 0 0 0 0 0 0 0 0 0 1 2 2 1 0 0 1 1 1 0 0 0 0 0 0 0 0 0 0 0 0 0 0 0 0
0 0 0 0 0 0 0 0 0 0 0 0 0 0 0 0 0 0 0 0 0 0 0 0 0 1 1 1 0 0 0 1 2 1 0 0 0 0 0 0 0 0 0 0 0 0 0 0 0
0 0 0 0 0 0 0 0 0 0 0 0 0 0 0 0 0 0 0 0 0 0 0 0 0 0 0 0 0 0 0 1 1 1 0 0 0 0 0 0 0 0 0 0 0 0 0 0 0
0 0 0 0 0 0 0 0 0 0 0 0 0 0 0 0 0 0 0 0 0 0 0 0 0 0 0 0 0 0 0 0 0 0 0 0 0 0 0 0 0 0 0 0 0 0 0 0 0
0 0 0 0 0 0 0 0 0 0 1 0 0 0 1 0 0 0 0 0 0 0 0 0 0 0 0 0 0 0 0 0 0 0 0 0 0 0 0 0 0 0 0 0 0 0 0 0 0
0 0 0 0 0 0 0 0 0 0 0 0 0 0 0 0 0 0 0 0 0 0 0 0 0 0 0 0 0 0 0 0 0 0 0 0 0 0 0 0 0 0 0 0 0 0 0 0 0
0 0 0 0 0 0 0 0 0 0 0 0 0 0 0 0 0 0 0 0 0 0 0 0 0 0 0 0 0 1 1 1 1 0 0 0 0 0 0 0 0 0 0 0 0 0 0 0 0
0 0 0 0 0 0 0 0 0 0 0 0 0 0 0 0 0 0 0 0 0 0 0 0 0 0 0 0 0 1 2 2 2 1 0 0 0 0 0 0 0 0 0 0 0 0 0 0 0
0 0 0 0 0 0 0 0 0 0 0 0 1 1 1 0 0 0 0 0 0 0 0 0 0 0 0 0 0 1 1 2 2 1 0 0 0 0 0 0 0 0 0 0 0 0 0 0 0
0 0 0 0 0 0 0 0 0 0 0 0 1 1 1 0 0 0 0 0 0 0 0 0 0 0 0 0 0 0 0 1 2 2 1 0 0 0 0 0 0 0 0 0 0 0 0 0 0
0 0 0 0 0 0 0 0 0 0 0 0 0 0 0 0 0 0 0 0 0 0 0 0 0 0 0 0 0 0 0 1 2 3 2 0 0 0 0 0 0 0 0 0 0 0 0 0 0
0 0 0 0 0 0 0 0 0 1 1 1 0 0 0 0 0 0 0 0 0 0 0 0 0 0 0 0 0 0 0 0 1 2 3 1 0 0 0 0 0 0 0 0 0 0 0 0 0
0 0 0 0 0 0 0 0 0 1 1 1 1 1 0 1 1 0 0 0 0 0 0 0 0 0 0 0 0 0 0 0 0 1 2 1 0 1 1 0 0 0 0 0 0 0 0 0 0
0 0 0 0 0 0 0 0 0 0 0 1 2 2 1 1 2 1 0 0 0 0 0 0 0 0 0 0 0 0 0 0 0 0 0 0 0 1 1 1 0 0 0 0 0 0 0 0 0
0 0 0 0 0 0 0 0 0 0 0 0 1 1 1 1 1 1 0 0 0 1 1 0 0 0 0 0 0 0 0 0 0 0 0 0 0 0 1 1 0 0 0 0 0 0 0 0 0
0 0 0 0 0 0 0 0 0 0 0 0 0 0 0 0 0 0 0 0 0 1 1 1 1 0 0 0 0 0 0 0 0 0 0 0 0 0 0 0 0 0 0 0 0 0 0 0 0
0 0 0 0 0 0 0 0 0 0 0 0 0 0 0 0 0 0 0 0 0 1 1 2 2 1 1 1 1 0 0 0 0 0 0 0 0 0 0 0 0 0 0 0 0 0 0 0 0
0 0 0 0 0 0 0 0 0 0 0 0 0 0 0 0 0 0 0 0 0 0 0 2 3 3 3 3 3 2 1 0 0 0 0 0 0 0 0 0 0 0 0 0 0 0 0 0 0
0 0 0 0 0 0 0 0 0 0 0 0 0 0 0 0 0 0 0 0 0 0 0 1 3 4 4 5 5 4 3 1 0 0 0 0 0 0 0 0 0 0 0 0 0 0 0 0 0
0 0 0 0 0 0 0 0 0 0 0 0 0 0 0 0 0 0 0 0 0 0 0 1 2 3 3 4 5 6 4 2 1 0 0 0 0 0 0 0 0 0 0 0 0 0 0 0 0
0 0 0 0 0 0 0 0 0 0 0 0 0 0 0 0 0 0 0 0 0 0 0 0 1 1 1 1 3 5 4 3 2 1 1 0 0 1 1 1 0 0 0 0 0 0 0 0 0
0 0 0 0 0 0 0 0 0 0 0 0 0 0 0 0 0 0 0 0 0 0 0 0 0 0 0 0 1 2 3 3 3 2 2 1 1 2 2 2 1 0 0 0 0 0 0 0 0
0 0 0 0 0 0 0 0 0 0 0 0 0 0 0 0 0 0 0 0 0 0 0 0 0 0 0 0 0 1 1 1 2 2 1 1 1 2 3 3 2 1 0 0 0 0 0 0 0
0 0 0 0 0 0 0 0 0 0 0 0 0 0 0 0 0 0 0 0 0 0 0 0 0 0 0 0 0 0 0 0 0 0 0 0 1 2 3 3 2 1 0 0 0 0 0 0 0
0 0 0 0 0 0 0 0 0 0 0 0 0 0 0 0 0 0 0 0 0 0 0 0 0 0 0 0 0 0 0 0 0 0 0 0 0 1 2 2 2 1 0 0 0 0 0 0 0
0 0 0 0 0 0 0 0 0 0 0 0 0 0 0 0 0 0 0 0 0 0 0 0 0 0 0 0 0 0 0 0 0 0 0 0 0 0 1 1 1 0 0 0 0 0 0 0 0
Wind_Speed
14 11 6 3 4 5 7 6 1 3 3 5 5 3 5 7 7 7 3 6 10 13 15 14 13 14 13 13 12 12 12 12 12 12 11 11 11 11 11 11 10 11 12 13 12 13 13 13 12
11 10 5 4 4 6 5 3 1 4 6 5 2 1 2 7 8 7 4 6 10 13 14 13 13 13 13 12 12 11 11 11 12 11 11 11 11 11 11 10 10 11 11 12 12 12 12 11 11
12 8 4 4 5 7 5 2 5 7 5 2 1 2 4 6 7 4 4 7 9 11 12 13 14 13 13 12 12 11 11 11 11 11 11 10 10 10 10 9 9 10 11 11 11 11 10 10 9
6 4 4 5 8 7 5 3 4 4 3 1 1 3 6 7 4 5 5 7 8 10 11 14 14 13 12 12 12 12 11 11 11 10 10 10 10 9 9 9 8 9 10 10 10 9 9 8 8
4 4 5 7 9 7 4 4 3 1 1 1 1 2 6 5 8 8 5 6 7 8 10 13 13 12 12 12 11 11 10 10 10 10 9 9 9 9 9 8 8 9 9 9 9 8 7 7 6
4 3 5 7 9 6 3 2 1 1 1 1 2 1 6 4 6 5 5 5 7 8 9 10 11 12 11 11 10 10 10 10 10 9 9 8 9 9 8 9 8 8 8 8 8 7 6 6 5
4 4 7 9 7 4 2 2 1 2 2 1 2 1 6 5 4 4 4 5 6 7 8 7 8 9 10 10 10 9 9 9 9 9 8 8 8 8 7 7 8 8 8 7 7 7 6 5 4
3 4 7 8 8 4 3 2 2 4 3 3 3 3 3 4 3 3 4 5 6 6 6 6 6 6 7 7 9 9 9 9 9 8 8 8 8 7 7 6 7 7 7 7 7 6 5 4 3
4 4 6 5 5 2 4 3 3 3 2 3 5 6 6 7 3 3 3 3 4 4 4 5 5 5 5 6 9 9 8 8 8 7 9 8 5 6 6 7 7 7 7 7 7 6 5 4 4
2 4 5 4 5 4 4 3 3 2 2 3 5 8 8 5 4 3 2 3 3 3 3 4 4 4 4 5 6 5 6 6 6 5 7 5 4 4 6 8 9 8 7 7 7 7 6 5 3
2 3 3 4 6 6 5 4 4 2 1 1 2 3 5 4 3 2 2 2 3 3 2 3 3 3 3 2 4 3 3 4 6 7 7 5 4 3 4 3 5 5 6 4 5 6 4 4 3
4 3 4 4 4 4 5 4 3 3 3 3 2 4 5 4 2 1 1 1 2 2 3 2 3 2 2 2 3 3 3 3 4 5 7 5 3 3 3 3 4 4 3 4 4 3 4 4 4
4 4 4 4 4 4 5 6 5 4 4 4 4 5 4 3 2 1 1 1 1 0 1 2 3 3 2 2 2 3 4 4 4 4 5 6 4 4 4 3 3 4 4 4 4 4 4 4 4
3 4 5 4 4 3 4 7 5 3 3 2 3 3 3 2 2 2 2 2 2 2 1 1 1 2 3 3 2 2 3 3 4 4 5 6 5 4 4 4 4 4 4 4 4 4 3 3 3
4 4 4 3 4 2 3 5 5 4 2 0 1 2 2 2 3 2 2 2 2 2 2 2 2 1 1 2 3 2 3 3 3 4 5 6 5 5 4 4 4 4 4 4 3 4 3 3 3
4 4 4 2 3 3 2 5 2 2 1 1 1 2 3 3 3 3 3 3 3 3 2 2 2 3 2 1 2 2 3 3 3 4 4 6 6 6 4 4 4 4 4 4 4 3 3 3 3
2 4 5 3 2 1 3 5 2 3 2 1 1 1 2 3 4 4 4 4 4 3 3 3 3 2 3 2 2 2 1 2 3 3 3 4 6 6 5 4 4 4 3 4 4 4 4 4 4
3 4 5 5 1 2 4 4 2 2 1 1 1 2 2 3 3 3 4 4 4 4 3 3 3 3 3 2 2 1 1 1 1 2 2 4 4 6 6 4 5 5 4 4 4 5 4 4 3
5 5 6 5 2 3 4 4 3 1 1 0 1 2 2 3 3 4 3 4 5 5 5 4 3 3 2 2 2 2 2 2 2 2 2 3 4 5 5 5 5 5 6 6 6 5 5 5 3
6 6 7 5 4 4 2 4 3 3 2 1 0 1 2 2 3 4 4 5 5 5 5 4 4 3 3 2 2 2 2 2 2 2 2 3 3 4 4 5 5 6 5 6 6 6 5 4 4
5 5 7 6 6 3 2 4 4 3 2 1 1 0 1 2 2 3 3 4 3 4 4 4 4 3 3 3 2 2 2 2 1 2 2 3 3 3 4 4 4 4 5 6 7 6 7 6 5
6 5 7 6 4 3 3 4 4 3 2 2 1 0 1 2 2 2 3 3 3 3 3 4 4 4 4 3 2 2 2 2 3 2 2 3 3 3 4 4 5 5 5 5 6 6 6 6 5
4 5 7 6 5 5 5 5 4 4 3 3 2 1 0 1 2 3 3 3 4 4 3 3 4 4 4 4 3 2 2 2 2 3 3 3 3 3 3 3 3 4 4 5 6 6 6 6 7
4 4 4 4 3 6 7 5 4 2 4 3 2 1 0 1 1 2 3 3 3 4 3 3 4 5 5 4 3 3 3 3 4 4 3 3 3 3 3 3 3 4 3 4 5 6 7 6 6
2 0 1 1 3 6 3 5 4 1 1 1 1 1 2 2 2 2 3 4 4 4 4 4 4 4 5 5 4 3 3 3 3 3 3 3 3 3 4 3 3 3 4 4 4 5 6 6 6
2 2 1 2 3 3 2 5 2 2 2 2 2 2 3 3 4 4 4 4 4 4 4 4 4 4 5 5 5 4 3 2 2 4 4 4 3 4 5 4 4 4 4 4 4 4 5 5 6
2 2 1 2 2 3 4 3 2 1 1 1 2 2 3 3 4 5 5 5 4 5 5 4 4 5 5 5 5 5 5 3 3 4 4 3 4 4 5 5 5 5 5 4 4 4 5 5 6
2 1 0 2 2 4 5 5 3 2 2 1 2 2 3 4 4 4 4 4 4 4 5 5 5 5 5 5 5 6 5 5 4 3 4 4 5 5 5 5 5 5 4 4 4 4 3 4 4
2 2 2 2 2 2 4 3 1 1 2 2 2 2 2 3 4 4 4 4 4 4 4 5 5 5 5 5 6 6 6 5 5 4 4 4 4 5 5 5 5 5 4 4 4 4 4 4 4
1 2 2 2 3 3 4 5 1 2 2 2 2 2 3 3 3 3 4 4 4 4 5 5 5 5 5 5 5 5 6 6 6 6 6 5 5 5 5 5 5 5 5 4 4 4 5 4 4
Wind_Direction
310 293 274 262 245 240 248 253 255 68 61 52 35 3 23 33 35 90 117 107 114 127 138 147 145 147 146 144 142 142 143 143 139 134 131 128 124 121 117 114 110 108 106 102 99 96 93 91 91
300 292 271 245 250 253 251 243 140 73 68 64 49 346 51 67 69 95 98 106 120 130 141 149 144 146 147 146 146 147 148 146 143 141 138 134 130 127 124 121 117 115 112 108 104 100 97 95 93
288 268 266 246 242 257 279 37 69 77 77 74 48 34 40 60 80 87 93 117 123 130 140 142 144 147 149 151 152 151 150 149 147 145 141 137 134 131 128 126 124 121 117 113 110 106 102 99 96
289 252 241 250 255 257 286 21 71 92 104 65 26 84 76 50 58 81 103 118 123 129 136 142 147 150 151 153 153 153 151 151 148 146 143 141 138 135 134 131 128 127 122 118 115 112 108 105 101
254 255 240 246 254 268 311 21 38 55 103 77 352 79 84 55 75 92 107 111 117 124 128 145 149 152 154 156 156 156 155 153 151 149 148 147 144 141 140 137 134 131 127 124 120 118 115 112 108
262 249 244 243 245 248 275 347 21 308 334 22 3 39 90 76 81 102 109 108 110 115 121 142 149 152 156 159 160 160 159 158 157 156 154 151 150 148 146 146 144 140 136 133 129 126 121 117 116
266 262 257 263 261 255 294 12 19 312 316 24 345 45 104 73 71 99 110 108 109 112 119 136 153 157 159 161 164 165 164 162 160 158 157 154 153 152 149 149 151 150 147 144 140 136 133 130 129
285 277 257 258 266 273 338 12 24 339 327 39 33 43 93 88 81 103 114 112 111 112 123 142 158 163 167 167 168 168 168 165 163 162 160 158 156 157 158 157 160 159 158 155 153 151 152 154 161
282 253 254 263 281 318 360 6 7 341 337 46 47 42 81 109 100 94 102 104 112 121 129 142 159 168 171 174 175 172 172 171 168 167 166 164 171 170 168 173 167 168 168 167 169 169 172 177 194
245 242 251 294 323 337 345 353 339 326 5 38 44 51 84 108 125 131 135 139 133 144 151 152 162 172 176 183 169 177 180 178 184 178 176 186 188 181 175 171 171 171 176 180 186 189 190 198 203
241 247 271 312 343 350 339 341 341 309 300 14 61 87 100 103 111 148 173 178 174 172 163 161 162 176 182 180 172 178 178 178 189 188 185 184 186 179 171 157 166 177 185 192 194 196 205 209 205
264 289 300 310 350 347 329 320 314 312 322 7 66 108 113 117 121 145 173 189 178 177 177 175 170 185 190 189 188 182 178 178 184 190 187 183 185 185 175 173 174 180 188 195 196 197 209 213 212
263 278 296 307 326 328 320 304 291 300 335 357 51 86 106 115 112 83 33 32 47 84 170 190 185 192 196 201 209 198 190 186 186 184 191 188 184 188 185 183 180 184 183 189 198 202 208 212 216
290 283 276 289 294 299 304 294 283 302 335 19 64 91 103 105 85 50 30 27 27 15 354 331 219 203 200 205 213 211 202 194 188 188 193 194 192 189 185 186 188 192 191 190 192 203 207 211 214
268 272 267 259 260 270 291 277 260 282 291 35 92 90 86 72 64 46 28 25 19 14 18 10 320 283 215 208 212 217 210 201 197 194 194 194 195 194 188 190 194 197 195 193 196 211 211 215 216
240 242 245 227 229 245 250 265 293 299 204 171 86 80 75 60 51 37 33 27 21 23 17 19 360 349 322 273 229 227 225 208 207 199 196 199 201 198 193 197 200 197 192 193 198 203 209 218 218
231 243 251 248 200 229 218 268 309 9 70 128 126 95 76 53 35 30 31 35 28 25 18 12 7 355 325 309 283 247 235 220 208 205 203 205 208 207 200 202 202 195 196 200 202 204 204 218 224
239 248 261 261 214 236 240 254 298 339 19 65 62 57 54 52 34 30 26 29 29 23 17 16 14 3 344 331 324 311 295 259 221 200 210 207 211 214 208 208 209 200 200 206 204 207 210 218 220
285 278 271 280 285 256 249 254 267 272 302 14 40 32 34 29 25 30 31 36 34 26 18 11 11 1 2 341 312 293 274 279 270 250 241 233 221 209 207 210 213 212 210 209 206 206 213 219 212
271 278 285 301 320 290 263 263 255 218 222 238 54 31 25 12 19 20 27 36 35 26 15 8 6 358 358 337 307 283 284 272 263 270 256 257 251 235 222 215 213 211 211 211 211 209 215 217 198
253 266 277 291 316 292 285 274 239 209 194 207 220 320 352 1 12 25 30 30 31 25 13 2 0 357 351 350 349 345 322 320 301 306 295 276 260 244 238 231 225 218 214 216 212 209 213 219 212
258 282 292 289 285 264 240 265 234 203 207 204 203 227 315 339 352 11 28 24 21 17 13 4 2 1 0 2 3 5 330 295 293 298 285 295 282 271 257 251 239 230 220 217 214 212 214 214 220
293 303 282 273 262 271 249 256 254 199 220 213 192 187 252 356 14 15 22 25 23 20 17 8 1 360 0 359 358 355 329 311 321 327 320 304 289 276 279 270 255 249 238 231 222 215 216 216 217
308 288 276 259 244 249 236 240 262 208 223 209 196 175 116 29 24 13 16 19 18 21 18 14 8 358 354 356 357 351 331 332 338 336 326 318 309 294 291 297 276 255 248 243 236 224 221 221 221
320 357 294 247 218 235 205 229 245 142 52 53 69 61 41 31 18 5 12 14 10 10 7 3 1 349 348 349 345 340 328 319 311 314 313 319 317 312 301 291 286 276 261 251 242 231 231 224 222
260 219 182 236 260 294 249 231 232 114 73 42 34 33 26 14 17 15 11 8 360 352 353 356 351 341 345 344 337 331 323 312 315 317 316 312 309 307 318 300 284 280 272 263 247 236 232 232 228
240 233 258 287 295 280 254 254 269 162 122 53 33 30 13 8 9 3 0 1 359 355 353 352 349 347 346 343 337 331 329 324 322 326 321 322 323 322 321 316 305 290 285 274 264 247 240 232 228
250 233 180 208 243 261 261 246 246 206 226 333 34 31 20 9 2 358 356 356 356 355 354 357 355 349 344 343 340 338 333 331 323 318 317 316 318 319 316 316 311 303 293 288 275 265 256 244 239
206 199 209 233 234 247 272 263 357 76 78 40 30 26 14 2 352 344 343 347 347 351 351 348 345 341 341 340 338 334 333 336 333 321 310 308 310 312 310 311 312 306 296 294 294 286 272 255 249
219 221 199 208 245 243 267 268 291 48 23 18 356 358 1 352 338 337 340 342 345 343 340 339 336 333 332 332 332 329 330 331 328 325 322 319 311 307 307 309 308 307 306 299 288 292 287 270 260